Time,TemperatureF,DewpointF,PressureIn,WindDirection,WindDirectionDegrees,WindSpeedMPH,WindSpeedGustMPH,Humidity,HourlyPrecipIn,Conditions,Clouds,dailyrainin,SolarRadiationWatts/m^2,SoftwareType,DateUTC
2013-05-21 00:00:00,64.0,23.0,-100.00,WNW,293,8.0,13.0,21,0.00,,,0.00,0.000000,,2013-05-21 07:00:00,
2013-05-21 00:22:00,64.0,23.0,-100.00,WNW,293,8.0,13.0,21,0.00,,,0.00,0.000000,,2013-05-21 07:22:00,
2013-05-21 00:32:00,64.0,23.0,-100.00,WNW,293,8.0,13.0,21,0.00,,,0.00,0.000000,,2013-05-21 07:32:00,
2013-05-21 00:42:00,64.0,23.0,-100.00,WNW,293,8.0,13.0,21,0.00,,,0.00,0.000000,,2013-05-21 07:42:00,
2013-05-21 00:52:00,64.0,23.0,-100.00,WNW,293,8.0,13.0,21,0.00,,,0.00,0.000000,,2013-05-21 07:52:00,
2013-05-21 02:00:00,62.0,28.0,-100.00,West,277,7.0,12.0,27,-99.99,,,0.00,0.000000,,2013-05-21 09:00:00,
2013-05-21 02:33:00,62.0,28.0,-100.00,West,277,7.0,12.0,27,-99.99,,,0.00,0.000000,,2013-05-21 09:33:00,
2013-05-21 02:42:00,62.0,28.0,-100.00,West,277,7.0,12.0,27,-99.99,,,0.00,0.000000,,2013-05-21 09:42:00,
2013-05-21 02:53:00,62.0,28.0,-100.00,West,277,7.0,12.0,27,-99.99,,,0.00,0.000000,,2013-05-21 09:53:00,
2013-05-21 03:00:00,59.0,25.0,-100.00,WNW,293,6.0,11.0,27,0.00,,,0.00,0.000000,,2013-05-21 10:00:00,
2013-05-21 03:22:00,59.0,25.0,-100.00,WNW,293,6.0,11.0,27,0.00,,,0.00,0.000000,,2013-05-21 10:22:00,
2013-05-21 03:33:00,59.0,25.0,-100.00,WNW,293,6.0,11.0,27,0.00,,,0.00,0.000000,,2013-05-21 10:33:00,
2013-05-21 03:42:00,59.0,25.0,-100.00,WNW,293,6.0,11.0,27,0.00,,,0.00,0.000000,,2013-05-21 10:42:00,
2013-05-21 03:52:00,59.0,25.0,-100.00,WNW,293,6.0,11.0,27,0.00,,,0.00,0.000000,,2013-05-21 10:52:00,
2013-05-21 04:00:00,60.0,26.0,-100.00,North,354,0.0,11.0,27,0.00,,,0.00,0.000000,,2013-05-21 11:00:00,
2013-05-21 04:22:00,60.0,26.0,-100.00,North,354,0.0,11.0,27,0.00,,,0.00,0.000000,,2013-05-21 11:22:00,
2013-05-21 04:32:00,60.0,26.0,-100.00,North,354,0.0,11.0,27,0.00,,,0.00,0.000000,,2013-05-21 11:32:00,
2013-05-21 04:42:00,60.0,26.0,-100.00,North,354,0.0,11.0,27,0.00,,,0.00,0.000000,,2013-05-21 11:42:00,
2013-05-21 04:52:00,60.0,26.0,-100.00,North,354,0.0,11.0,27,0.00,,,0.00,0.000000,,2013-05-21 11:52:00,
2013-05-21 05:00:00,57.0,26.0,-100.00,WNW,297,7.0,10.0,30,0.00,,,0.00,0.000000,,2013-05-21 12:00:00,
2013-05-21 05:32:00,57.0,26.0,-100.00,WNW,297,7.0,10.0,30,0.00,,,0.00,0.000000,,2013-05-21 12:32:00,
2013-05-21 05:42:00,57.0,26.0,-100.00,WNW,297,7.0,10.0,30,0.00,,,0.00,0.000000,,2013-05-21 12:42:00,
2013-05-21 05:52:00,57.0,26.0,-100.00,WNW,297,7.0,10.0,30,0.00,,,0.00,0.000000,,2013-05-21 12:52:00,
2013-05-21 06:00:00,58.0,24.0,-100.00,WNW,299,1.0,10.0,27,0.00,,,-99.99,0.000000,,2013-05-21 13:00:00,
2013-05-21 06:22:00,58.0,24.0,-100.00,WNW,299,1.0,10.0,27,0.00,,,-99.99,0.000000,,2013-05-21 13:22:00,
2013-05-21 06:32:00,58.0,24.0,-100.00,WNW,299,1.0,10.0,27,0.00,,,-99.99,0.000000,,2013-05-21 13:32:00,
2013-05-21 06:42:00,58.0,24.0,-100.00,WNW,299,1.0,10.0,27,0.00,,,-99.99,0.000000,,2013-05-21 13:42:00,
2013-05-21 06:52:00,58.0,24.0,-100.00,WNW,299,1.0,10.0,27,0.00,,,-99.99,0.000000,,2013-05-21 13:52:00,
2013-05-21 07:21:00,55.0,21.0,-100.00,NW,309,2.0,8.0,26,0.00,,,0.00,2.000000,,2013-05-21 14:21:00,
2013-05-21 07:32:00,55.0,21.0,-100.00,NW,309,2.0,8.0,26,0.00,,,0.00,2.000000,,2013-05-21 14:32:00,
2013-05-21 07:42:00,55.0,21.0,-100.00,NW,309,2.0,8.0,26,0.00,,,0.00,2.000000,,2013-05-21 14:42:00,
2013-05-21 09:32:00,70.0,27.0,-100.00,East,96,1.0,4.0,20,-99.99,,,-99.99,414.000000,,2013-05-21 16:32:00,
2013-05-21 10:00:00,73.0,28.0,-100.00,ESE,106,4.0,7.0,19,0.00,,,0.00,689.000000,,2013-05-21 17:00:00,
2013-05-21 10:33:00,73.0,28.0,-100.00,ESE,106,4.0,7.0,19,0.00,,,0.00,689.000000,,2013-05-21 17:33:00,
2013-05-21 10:44:00,73.0,28.0,-100.00,ESE,106,4.0,7.0,19,0.00,,,0.00,689.000000,,2013-05-21 17:44:00,
2013-05-21 10:52:00,73.0,28.0,-100.00,ESE,106,4.0,7.0,19,0.00,,,0.00,689.000000,,2013-05-21 17:52:00,
2013-05-21 11:00:00,78.0,30.0,-100.00,West,259,12.0,20.0,17,0.00,,,0.00,941.000000,,2013-05-21 18:00:00,
2013-05-21 11:22:00,78.0,30.0,-100.00,West,259,12.0,20.0,17,0.00,,,0.00,941.000000,,2013-05-21 18:22:00,
2013-05-21 11:32:00,78.0,30.0,-100.00,West,259,12.0,20.0,17,0.00,,,0.00,941.000000,,2013-05-21 18:32:00,
2013-05-21 11:42:00,78.0,30.0,-100.00,West,259,12.0,20.0,17,0.00,,,0.00,941.000000,,2013-05-21 18:42:00,
2013-05-21 11:52:00,78.0,30.0,-100.00,West,259,12.0,20.0,17,0.00,,,0.00,941.000000,,2013-05-21 18:52:00,
2013-05-21 12:22:00,73.0,27.0,-100.00,West,274,11.0,21.0,18,0.00,,,0.00,904.000000,,2013-05-21 19:22:00,
2013-05-21 12:32:00,73.0,27.0,-100.00,West,274,11.0,21.0,18,0.00,,,0.00,904.000000,,2013-05-21 19:32:00,
2013-05-21 13:00:00,79.0,29.0,-100.00,West,270,12.0,24.0,16,0.00,,,0.00,838.000000,,2013-05-21 20:00:00,
2013-05-21 13:22:00,79.0,29.0,-100.00,West,270,12.0,24.0,16,0.00,,,0.00,838.000000,,2013-05-21 20:22:00,
2013-05-21 13:32:00,79.0,29.0,-100.00,West,270,12.0,24.0,16,0.00,,,0.00,838.000000,,2013-05-21 20:32:00,
2013-05-21 13:42:00,79.0,29.0,-100.00,West,270,12.0,24.0,16,0.00,,,0.00,838.000000,,2013-05-21 20:42:00,
2013-05-21 13:52:00,79.0,29.0,-100.00,West,270,12.0,24.0,16,0.00,,,0.00,838.000000,,2013-05-21 20:52:00,
2013-05-21 14:00:00,80.0,28.0,-100.00,West,272,13.0,28.0,15,0.00,,,0.00,1370.000000,,2013-05-21 21:00:00,
2013-05-21 14:22:00,80.0,28.0,-100.00,West,272,13.0,28.0,15,0.00,,,0.00,1370.000000,,2013-05-21 21:22:00,
2013-05-21 14:33:00,80.0,28.0,-100.00,West,272,13.0,28.0,15,0.00,,,0.00,1370.000000,,2013-05-21 21:33:00,
2013-05-21 14:43:00,80.0,28.0,-100.00,West,272,13.0,28.0,15,0.00,,,0.00,1370.000000,,2013-05-21 21:43:00,
2013-05-21 14:54:00,80.0,28.0,-100.00,West,272,13.0,28.0,15,0.00,,,0.00,1370.000000,,2013-05-21 21:54:00,
2013-05-21 15:23:00,78.0,21.0,-100.00,West,271,13.0,27.0,12,0.00,,,0.00,1395.000000,,2013-05-21 22:23:00,
2013-05-21 15:33:00,78.0,21.0,-100.00,West,271,13.0,27.0,12,0.00,,,0.00,1395.000000,,2013-05-21 22:33:00,
2013-05-21 15:42:00,78.0,21.0,-100.00,West,271,13.0,27.0,12,0.00,,,0.00,1395.000000,,2013-05-21 22:42:00,
2013-05-21 16:00:00,80.0,25.0,-100.00,West,276,14.0,25.0,13,0.00,,,0.00,1276.000000,,2013-05-21 23:00:00,
2013-05-21 16:22:00,80.0,25.0,-100.00,West,276,14.0,25.0,13,0.00,,,0.00,1276.000000,,2013-05-21 23:22:00,
2013-05-21 16:32:00,80.0,25.0,-100.00,West,276,14.0,25.0,13,0.00,,,0.00,1276.000000,,2013-05-21 23:32:00,
2013-05-21 16:42:00,80.0,25.0,-100.00,West,276,14.0,25.0,13,0.00,,,0.00,1276.000000,,2013-05-21 23:42:00,
2013-05-21 16:52:00,80.0,25.0,-100.00,West,276,14.0,25.0,13,0.00,,,0.00,1276.000000,,2013-05-21 23:52:00,
2013-05-21 17:00:00,79.0,26.0,-100.00,West,277,12.0,28.0,14,0.00,,,0.00,1105.000000,,2013-05-22 00:00:00,
2013-05-21 17:22:00,79.0,26.0,-100.00,West,277,12.0,28.0,14,0.00,,,0.00,1105.000000,,2013-05-22 00:22:00,
2013-05-21 17:32:00,79.0,26.0,-100.00,West,277,12.0,28.0,14,0.00,,,0.00,1105.000000,,2013-05-22 00:32:00,
2013-05-21 17:42:00,79.0,26.0,-100.00,West,277,12.0,28.0,14,0.00,,,0.00,1105.000000,,2013-05-22 00:42:00,
2013-05-21 17:52:00,79.0,26.0,-100.00,West,277,12.0,28.0,14,0.00,,,0.00,1105.000000,,2013-05-22 00:52:00,
2013-05-21 18:00:00,77.0,27.0,-100.00,West,273,13.0,32.0,16,0.00,,,0.00,878.000000,,2013-05-22 01:00:00,
2013-05-21 18:22:00,77.0,27.0,-100.00,West,273,13.0,32.0,16,0.00,,,0.00,878.000000,,2013-05-22 01:22:00,
2013-05-21 18:32:00,77.0,27.0,-100.00,West,273,13.0,32.0,16,0.00,,,0.00,878.000000,,2013-05-22 01:32:00,
2013-05-21 18:42:00,77.0,27.0,-100.00,West,273,13.0,32.0,16,0.00,,,0.00,878.000000,,2013-05-22 01:42:00,
2013-05-21 18:52:00,77.0,27.0,-100.00,West,273,13.0,32.0,16,0.00,,,0.00,878.000000,,2013-05-22 01:52:00,
2013-05-21 19:00:00,76.0,25.0,-100.00,WNW,282,11.0,27.0,15,0.00,,,0.00,264.000000,,2013-05-22 02:00:00,
2013-05-21 19:22:00,76.0,25.0,-100.00,WNW,282,11.0,27.0,15,0.00,,,0.00,264.000000,,2013-05-22 02:22:00,
2013-05-21 19:32:00,76.0,25.0,-100.00,WNW,282,11.0,27.0,15,0.00,,,0.00,264.000000,,2013-05-22 02:32:00,
2013-05-21 19:42:00,76.0,25.0,-100.00,WNW,282,11.0,27.0,15,0.00,,,0.00,264.000000,,2013-05-22 02:42:00,
2013-05-21 19:52:00,76.0,25.0,-100.00,WNW,282,11.0,27.0,15,0.00,,,0.00,264.000000,,2013-05-22 02:52:00,
2013-05-21 20:00:00,71.0,21.0,-100.00,WNW,300,6.0,22.0,15,0.00,,,0.00,46.000000,,2013-05-22 03:00:00,
2013-05-21 20:22:00,71.0,21.0,-100.00,WNW,300,6.0,22.0,15,0.00,,,0.00,46.000000,,2013-05-22 03:22:00,
2013-05-21 20:33:00,71.0,21.0,-100.00,WNW,300,6.0,22.0,15,0.00,,,0.00,46.000000,,2013-05-22 03:33:00,
2013-05-21 20:43:00,71.0,21.0,-100.00,WNW,300,6.0,22.0,15,0.00,,,0.00,46.000000,,2013-05-22 03:43:00,
2013-05-21 20:53:00,71.0,21.0,-100.00,WNW,300,6.0,22.0,15,0.00,,,0.00,46.000000,,2013-05-22 03:53:00,
2013-05-21 21:00:00,67.0,16.0,-100.00,NW,311,3.0,13.0,14,0.00,,,0.00,16.000000,,2013-05-22 04:00:00,
2013-05-21 21:23:00,67.0,16.0,-100.00,NW,311,3.0,13.0,14,0.00,,,0.00,16.000000,,2013-05-22 04:23:00,
2013-05-21 21:33:00,67.0,16.0,-100.00,NW,311,3.0,13.0,14,0.00,,,0.00,16.000000,,2013-05-22 04:33:00,
2013-05-21 21:43:00,67.0,16.0,-100.00,NW,311,3.0,13.0,14,0.00,,,0.00,16.000000,,2013-05-22 04:43:00,
2013-05-21 21:53:00,67.0,16.0,-100.00,NW,311,3.0,13.0,14,0.00,,,0.00,16.000000,,2013-05-22 04:53:00,
2013-05-21 22:00:00,67.0,16.0,-100.00,NW,325,0.0,12.0,14,0.00,,,0.00,0.000000,,2013-05-22 05:00:00,
2013-05-21 22:22:00,67.0,16.0,-100.00,NW,325,0.0,12.0,14,0.00,,,0.00,0.000000,,2013-05-22 05:22:00,
2013-05-21 22:32:00,67.0,16.0,-100.00,NW,325,0.0,12.0,14,0.00,,,0.00,0.000000,,2013-05-22 05:32:00,
2013-05-21 22:42:00,67.0,16.0,-100.00,NW,325,0.0,12.0,14,0.00,,,0.00,0.000000,,2013-05-22 05:42:00,
2013-05-21 22:52:00,67.0,16.0,-100.00,NW,325,0.0,12.0,14,0.00,,,0.00,0.000000,,2013-05-22 05:52:00,
2013-05-21 23:00:00,64.0,20.0,-100.00,NNW,330,2.0,10.0,18,0.00,,,0.00,0.000000,,2013-05-22 06:00:00,
2013-05-21 23:21:00,64.0,20.0,-100.00,NNW,330,2.0,10.0,18,0.00,,,0.00,0.000000,,2013-05-22 06:21:00,
2013-05-21 23:32:00,64.0,20.0,-100.00,NNW,330,2.0,10.0,18,0.00,,,0.00,0.000000,,2013-05-22 06:32:00,
2013-05-21 23:42:00,64.0,20.0,-100.00,NNW,330,2.0,10.0,18,0.00,,,0.00,0.000000,,2013-05-22 06:42:00,
2013-05-21 23:52:00,64.0,20.0,-100.00,NNW,330,2.0,10.0,18,0.00,,,0.00,0.000000,,2013-05-22 06:52:00,